DELTA 1 DEB, 9726

Orbit data source: Space-Track

DELTA 1 DEB, 9726 is space debris in SSO originally from a launch on Tue, 06 Nov 1973 UTC launched from the Air Force Western Test Range (AFWTR). Debris objects in space refer to the collection of defunct objects orbiting the Earth. Examples of debris include non-operational satellites, rocket bodies, and fragments generated from explosions, collisions, or faulty payload assembly.

Loading next visibility...
Identifier
9726, 1973-086GC
Orbit
SSO
Country
Flag of USUS
Related business
Manufacturer
Unknown
Mission
Spacecraft
Bus & Motor
Unknown
Mass
Unknown
Launch date (UTC)
1973-11-06 (53 years ago)
Launch vehicle
Unknown
Launch site
Air Force Western Test Range (AFWTR)
Object type
Payload
Rocket body
Debris
Shape & HBR
Unknown shape, 0.1 m
Radar Cross Section
Medium (>0.1 m² and <1 m²)

Expand to show TLE details & history
Last TLE update: 4 days ago

TLE from 4 days ago
0 DELTA 1 DEB
1 09726U 73086GC  26260.00967516 -.00000020  00000-0  23223-3 0  9996
2 09726 102.5888 276.9314 0079461 195.5260 193.2364 12.26680218292439
Epoch: 2026-09-17T00:13Z
TLE epoch observation values (Epoch: 2026-09-17T00:13:55.933Z)
Latitude
27.84909°
Longitude
-89.24799°
Altitude
1,628.111 km
Speed
7.032 km/s
True Right ascension
18h 00m 45s
True Declination
27° 43' 22"
Sunlit
Object was in daylight at epoch
Visualization orbit readout
Latitude
Unknown
Longitude
Unknown
Altitude
Unknown
Speed
Unknown
Apparent Right ascension
Unknown
Apparent Declination
Unknown
Sunlit
N/A
Visualization observer readout
Local Sidereal Time
09:46:07
Azimuth
Unknown
Elevation
Unknown
Doppler factor
Unknown
Orbital elements
Apogee altitude
1,624.292 km
Perigee altitude
1,498.118 km
Semi-major axis
7,939.342 km
Eccentricity
0.00795
Inclination
102.5888°
RAAN
276.9314°
Arg. of periapsis
195.526°
True anomaly
193.02991°
Mean anomaly
193.2364°
Eccentric anomaly
193.13296°
Mean motion
3.06808 °/min
Orbital period
117.34 mins
BSTAR
0.00023223
Loading maneuver chart data...
Computing Atmospheric mass density...
Loading historical data...
Loading historical data...
Loading historical data...
Loading historical data...
Loading historical data...
Loading historical data...
Loading historical data...

Documentation

Showing up to 5 results
|